This is the latest recevied weather packets stored in our database for station/object K7UHP. If no packets are shown the sender has not sent any weather packets the latest 10 day(s).
| Time | Temp. | Humidity | Pressure | Rain* | Wind** | Luminosity | Snow |
|---|---|---|---|---|---|---|---|
| 1777814617 | 10.56° C | 51% | 1016.1 hPa | 0 mm | - | - | - |
| 1777814016 | 10.56° C | 48% | 1016.1 hPa | 0 mm | - | - | - |
| 1777813415 | 10.56° C | 50% | 1016.1 hPa | 0 mm | - | - | - |
| 1777812814 | 11.11° C | 48% | 1016 hPa | 0 mm | - | - | - |
| 1777812213 | 10.56° C | 49% | 1016.1 hPa | 0 mm | - | - | - |
| 1777811613 | 11.11° C | 49% | 1015.9 hPa | 0 mm | - | - | - |
| 1777811012 | 11.11° C | 48% | 1015.9 hPa | 0 mm | - | - | - |
| 1777810411 | 11.11° C | 51% | 1015.9 hPa | 0 mm | - | - | - |
| 1777809810 | 11.11° C | 51% | 1016 hPa | 0 mm | - | - | - |
| 1777809209 | 11.11° C | 53% | 1016.1 hPa | 0 mm | - | - | - |
| 1777808608 | 11.11° C | 52% | 1016.1 hPa | 0 mm | - | - | - |
| 1777808007 | 11.11° C | 52% | 1016.2 hPa | 0 mm | - | - | - |
| 1777807406 | 11.67° C | 52% | 1016.4 hPa | 0 mm | - | - | - |
| 1777806805 | 11.67° C | 52% | 1016.5 hPa | 0 mm | - | - | - |
| 1777806204 | 11.11° C | 54% | 1016.5 hPa | 0 mm | - | - | - |
| 1777805604 | 11.11° C | 53% | 1016.6 hPa | 0 mm | - | - | - |
| 1777805003 | 11.11° C | 48% | 1016.5 hPa | 0 mm | - | - | - |
| 1777804402 | 11.11° C | 44% | 1016.5 hPa | 0 mm | - | - | - |
| 1777803801 | 11.67° C | 43% | 1016.4 hPa | 0 mm | - | - | - |
| 1777803200 | 11.67° C | 41% | 1016.4 hPa | 0 mm | - | - | - |
| 1777802599 | 12.22° C | 38% | 1016.3 hPa | 0 mm | - | - | - |
| 1777801998 | 12.22° C | 38% | 1016.3 hPa | 0 mm | - | - | - |
| 1777801397 | 12.22° C | 39% | 1016.3 hPa | 0 mm | - | - | - |
| 1777800796 | 11.67° C | 40% | 1016.3 hPa | 0 mm | - | - | - |
| 1777799594 | 12.22° C | 42% | 1016.4 hPa | 0 mm | - | - | - |
* Rain latest hour (hover to see other rain measurements)
** Current wind speed in m/s (hover to see current wind gust speed)